Location: Newark
(43.4306°N, 0.3089°E)
Time: 22:08:11
(UTC+00:00)

A-11 Canister half - Pass Details

Date: 26 August 2019
Orbit: 1514 x 1686 km, 47.2° (Epoch: 14 September)

Event Time Altitude Azimuth Distance (km) Brightness Sun altitude
Rises 01:11:13 0° 290° (WNW) 4,841 11.6 -33.7°
Reaches altitude 10° 01:15:27 10° 275° (W) 3,880 10.9 -33.4°
Enters shadow 01:15:30 10° 275° (W) 3,871 10.9 -33.4°
